When you browse on this site, cookies collect data to enhance your experience and personalize the content and advertising you see.
Visit our Privacy Policy to learn more. By continuing to use the site, you agree to this use of cookies and data.
  • In Spain
  • List of Countries
  • For 7 days
  • Water Temperature
  • Satellite Maps
  • Weather Map
  • Weather Widgets
  • user-avatar
    Login

    Hourly Weather Arkalyk

    Today, 21 June, Friday

    Time Temperature Precipitation Wind Pressure Humidity
    00:00 +19°C° 0 mm 4 mps 729 mmHg 52%
    01:00 +18°C° 0 mm 4 mps 729 mmHg 57%
    02:00 +18°C° 0 mm 4 mps 729 mmHg 58%
    03:00 +17°C° 0 mm 4 mps 729 mmHg 60%
    04:00 +17°C° 0 mm 4 mps 729 mmHg 61%
    05:00 +19°C° 0 mm 3 mps 729 mmHg 56%
    06:00 +21°C° 0 mm 3 mps 729 mmHg 50%
    07:00 +24°C° 0 mm 3 mps 729 mmHg 45%
    08:00 +25°C° 0 mm 3 mps 729 mmHg 40%
    09:00 +26°C° 0 mm 3 mps 729 mmHg 35%
    10:00 +27°C° 0 mm 2 mps 729 mmHg 31%
    11:00 +28°C° 0 mm 2 mps 729 mmHg 29%
    12:00 +28°C° 0 mm 1 mps 729 mmHg 28%
    13:00 +29°C° 0 mm 1 mps 729 mmHg 26%
    14:00 +29°C° 0 mm 1 mps 729 mmHg 26%
    15:00 +29°C° 0 mm 2 mps 728 mmHg 25%
    16:00 +30°C° 0 mm 3 mps 728 mmHg 24%
    17:00 +29°C° 0 mm 3 mps 728 mmHg 28%
    18:00 +28°C° 0 mm 3 mps 728 mmHg 31%
    19:00 +27°C° 0 mm 3 mps 728 mmHg 35%
    20:00 +25°C° 0 mm 3 mps 728 mmHg 37%
    21:00 +24°C° 0 mm 2 mps 729 mmHg 39%
    22:00 +23°C° 0 mm 2 mps 729 mmHg 41%
    23:00 +21°C° 0 mm 3 mps 729 mmHg 49%

    Tomorrow, 22 June, Saturday

    Time Temperature Precipitation Wind Pressure Humidity
    00:00 +20°C° 0 mm 4 mps 729 mmHg 56%
    01:00 +20°C° 0 mm 5 mps 729 mmHg 64%
    02:00 +19°C° 0 mm 5 mps 730 mmHg 67%
    03:00 +19°C° 0 mm 5 mps 730 mmHg 70%
    04:00 +17°C° 0 mm 5 mps 730 mmHg 73%
    05:00 +19°C° 0 mm 5 mps 731 mmHg 64%
    06:00 +20°C° 0 mm 5 mps 731 mmHg 55%
    07:00 +21°C° 0 mm 6 mps 732 mmHg 46%
    08:00 +22°C° 0 mm 6 mps 732 mmHg 42%
    09:00 +23°C° 0 mm 6 mps 732 mmHg 39%
    10:00 +24°C° 0 mm 6 mps 732 mmHg 36%
    11:00 +24°C° 0 mm 6 mps 733 mmHg 34%
    12:00 +24°C° 0 mm 6 mps 733 mmHg 32%
    13:00 +26°C° 0 mm 6 mps 733 mmHg 30%
    14:00 +24°C° 0 mm 7 mps 733 mmHg 30%
    15:00 +24°C° 0 mm 7 mps 733 mmHg 31%
    16:00 +23°C° 0 mm 7 mps 733 mmHg 31%
    17:00 +22°C° 0 mm 6 mps 733 mmHg 34%
    18:00 +21°C° 0 mm 6 mps 734 mmHg 38%
    19:00 +20°C° 0 mm 5 mps 734 mmHg 41%
    20:00 +17°C° 0 mm 5 mps 734 mmHg 43%
    21:00 +17°C° 0 mm 4 mps 735 mmHg 46%
    22:00 +15°C° 0 mm 4 mps 735 mmHg 48%
    23:00 +14°C° 0 mm 3 mps 735 mmHg 51%

    Day after tomorrow, 23 June, Sunday

    Time Temperature Precipitation Wind Pressure Humidity
    00:00 +14°C° 0 mm 3 mps 735 mmHg 54%
    01:00 +14°C° 0 mm 2 mps 735 mmHg 56%
    02:00 +13°C° 0 mm 2 mps 735 mmHg 58%
    03:00 +13°C° 0 mm 1 mps 735 mmHg 60%
    04:00 +13°C° 0 mm 1 mps 735 mmHg 63%
    05:00 +14°C° 0 mm 1 mps 735 mmHg 56%
    06:00 +16°C° 0 mm 1 mps 736 mmHg 50%
    07:00 +16°C° 0 mm 0 mps 736 mmHg 44%
    08:00 +20°C° 0 mm 1 mps 736 mmHg 42%
    09:00 +21°C° 0 mm 1 mps 736 mmHg 40%
    10:00 +21°C° 0 mm 2 mps 736 mmHg 38%
    11:00 +24°C° 0 mm 2 mps 735 mmHg 37%
    12:00 +25°C° 0 mm 3 mps 735 mmHg 35%
    13:00 +26°C° 0 mm 4 mps 735 mmHg 34%
    14:00 +26°C° 0 mm 5 mps 735 mmHg 34%
    15:00 +27°C° 0 mm 6 mps 734 mmHg 34%
    16:00 +27°C° 0 mm 6 mps 734 mmHg 35%
    17:00 +27°C° 0 mm 6 mps 734 mmHg 37%
    18:00 +26°C° 0 mm 5 mps 733 mmHg 40%
    19:00 +25°C° 0 mm 4 mps 733 mmHg 43%
    20:00 +25°C° 0 mm 4 mps 733 mmHg 45%
    21:00 +23°C° 0 mm 5 mps 733 mmHg 46%
    22:00 +22°C° 0 mm 5 mps 732 mmHg 48%
    23:00 +22°C° 0 mm 5 mps 732 mmHg 48%

    24 June, Monday

    Time Temperature Precipitation Wind Pressure Humidity
    00:00 +22°C° 0 mm 6 mps 732 mmHg 47%
    01:00 +22°C° 0 mm 6 mps 732 mmHg 47%
    02:00 +21°C° 0 mm 6 mps 731 mmHg 48%
    03:00 +20°C° 0 mm 6 mps 731 mmHg 50%
    04:00 +20°C° 0 mm 6 mps 731 mmHg 51%
    05:00 +21°C° 0 mm 6 mps 731 mmHg 49%
    06:00 +22°C° 0 mm 6 mps 731 mmHg 47%
    07:00 +24°C° 0 mm 7 mps 731 mmHg 45%
    08:00 +26°C° 0 mm 7 mps 731 mmHg 45%
    09:00 +27°C° 0 mm 7 mps 731 mmHg 44%
    10:00 +29°C° 0 mm 7 mps 731 mmHg 44%
    11:00 +29°C° 0 mm 7 mps 730 mmHg 44%
    12:00 +30°C° 0 mm 7 mps 730 mmHg 44%
    13:00 +30°C° 0 mm 7 mps 730 mmHg 44%
    14:00 +30°C° 0 mm 6 mps 730 mmHg 44%
    15:00 +32°C° 0 mm 6 mps 730 mmHg 43%
    16:00 +32°C° 0 mm 5 mps 730 mmHg 43%
    17:00 +30°C° 0 mm 4 mps 730 mmHg 46%
    18:00 +29°C° 0 mm 3 mps 730 mmHg 49%
    19:00 +28°C° 0 mm 3 mps 730 mmHg 52%
    20:00 +27°C° 0 mm 2 mps 729 mmHg 54%
    21:00 +26°C° 0 mm 2 mps 729 mmHg 57%
    22:00 +25°C° 0 mm 2 mps 729 mmHg 60%
    23:00 +25°C° 0 mm 2 mps 729 mmHg 60%

    25 June, Tuesday

    Time Temperature Precipitation Wind Pressure Humidity
    00:00 +24°C° 0 mm 2 mps 729 mmHg 61%
    01:00 +24°C° 0 mm 1 mps 729 mmHg 62%
    02:00 +24°C° 0 mm 2 mps 728 mmHg 63%
    03:00 +24°C° 0 mm 2 mps 728 mmHg 63%
    04:00 +24°C° 0 mm 3 mps 728 mmHg 64%
    05:00 +25°C° 0.1 mm 3 mps 728 mmHg 60%
    06:00 +26°C° 0.1 mm 4 mps 728 mmHg 55%
    07:00 +28°C° 0.1 mm 4 mps 729 mmHg 51%
    08:00 +29°C° 0.1 mm 5 mps 728 mmHg 49%
    09:00 +30°C° 0.1 mm 5 mps 728 mmHg 46%
    10:00 +32°C° 0.1 mm 6 mps 728 mmHg 44%
    11:00 +32°C° 0 mm 6 mps 728 mmHg 45%
    12:00 +30°C° 0 mm 6 mps 728 mmHg 46%
    13:00 +30°C° 0 mm 6 mps 728 mmHg 47%
    14:00 +30°C° 0.1 mm 6 mps 728 mmHg 45%
    15:00 +30°C° 0.1 mm 5 mps 728 mmHg 44%
    16:00 +30°C° 0.1 mm 5 mps 727 mmHg 43%
    17:00 +29°C° 0 mm 5 mps 727 mmHg 45%
    18:00 +28°C° 0 mm 4 mps 727 mmHg 47%
    19:00 +27°C° 0 mm 4 mps 727 mmHg 49%
    20:00 +26°C° 0 mm 4 mps 727 mmHg 49%
    21:00 +25°C° 0 mm 3 mps 727 mmHg 49%
    22:00 +24°C° 0 mm 3 mps 728 mmHg 50%
    23:00 +22°C° 0 mm 4 mps 727 mmHg 52%

    26 June, Wednesday

    Time Temperature Precipitation Wind Pressure Humidity
    00:00 +22°C° 0 mm 4 mps 727 mmHg 54%
    01:00 +21°C° 0 mm 4 mps 726 mmHg 56%
    02:00 +21°C° 0.3 mm 4 mps 726 mmHg 62%
    03:00 +21°C° 0.3 mm 4 mps 726 mmHg 68%
    04:00 +20°C° 0.3 mm 3 mps 725 mmHg 74%
    05:00 +20°C° 0.8 mm 4 mps 725 mmHg 76%
    06:00 +20°C° 0.8 mm 5 mps 725 mmHg 79%
    07:00 +20°C° 0.8 mm 5 mps 725 mmHg 81%
    08:00 +21°C° 0.6 mm 5 mps 725 mmHg 77%
    09:00 +22°C° 0.6 mm 4 mps 725 mmHg 73%
    10:00 +23°C° 0.6 mm 4 mps 725 mmHg 69%
    11:00 +25°C° 0.6 mm 4 mps 724 mmHg 65%
    12:00 +25°C° 0.6 mm 3 mps 724 mmHg 61%
    13:00 +26°C° 0.6 mm 3 mps 724 mmHg 57%
    14:00 +26°C° 0.3 mm 4 mps 724 mmHg 48%
    15:00 +27°C° 0.3 mm 5 mps 724 mmHg 40%
    16:00 +27°C° 0.3 mm 6 mps 723 mmHg 32%
    17:00 +26°C° 0 mm 5 mps 723 mmHg 34%
    18:00 +26°C° 0 mm 4 mps 723 mmHg 36%
    19:00 +25°C° 0 mm 4 mps 723 mmHg 38%
    20:00 +22°C° 0 mm 5 mps 723 mmHg 48%
    21:00 +20°C° 0 mm 5 mps 723 mmHg 59%
    22:00 +19°C° 0 mm 6 mps 723 mmHg 70%
    23:00 +16°C° 0 mm 6 mps 723 mmHg 76%
    Show more